Regional Weather Roundup
Issued by NWS

Home | Current Version | Previous Version | Text Only | Print | Product List | Glossary On
Versions: 1 2 3 4 5 6 7 8 9 10 11 12 13 14 15 16 17 18 19 20 21 22 23 24 25 26 27 28 29 30 31 32 33 34 35 36 37 38 39 40 41 42 43 44 45 46 47 48 49 50
000
ASUS45 KBOU 300507
RWRCO

WEATHER ROUNDUP FOR COLORADO
NATIONAL WEATHER SERVICE DENVER/BOULDER CO
1100 PM MDT WED MAR 29 2017

NOTE: "FAIR" INDICATES FEW OR NO CLOUDS BELOW 12000 FEET WITH NO
SIGNIFICANT WEATHER AND/OR OBSTRUCTIONS TO VISIBILITY.

COZ001>005-013-030-031-300600-
...NORTHWEST COLORADO...

CITY           SKY/WX    TMP DP  RH WIND       PRES   REMARKS
CRAIG          FAIR      34  26  72 E3        30.06S
HAYDEN         FAIR      37  23  56 NE5       30.06F
MEEKER         FAIR      33  28  81 E5        30.08F WCI  29
MOUNT WERNER   NOT AVBL
STEAMBOAT SPGS FAIR      34  27  73 CALM      30.07S
WALDEN         NOT AVBL
$$

COZ006>008-011-300600-
...WEST CENTRAL VALLEYS...

CITY           SKY/WX    TMP DP  RH WIND       PRES   REMARKS
GRAND JUNCTION FAIR      44  30  57 E5        30.03S
MONTROSE       FAIR      41  31  67 SE10      30.09S
EAGLE          FAIR      36  28  73 E5        30.11R
RIFLE          FAIR      40  26  57 S5        30.07R
DELTA          FAIR      44  28  51 E3        30.06S
NUCLA          FAIR      39  27  60 E8        30.12R
$$

COZ017>023-064>068-300600-
...SOUTHWEST COLORADO...

CITY           SKY/WX    TMP DP  RH WIND       PRES   REMARKS
DURANGO        FAIR      40  17  39 NW6       30.04R
CORTEZ         FAIR      41  26  55 VRB6      30.08S
PAGOSA SPRINGS FAIR      35  19  51 CALM      30.07S
TELLURIDE      FAIR      33  19  56 CALM      30.18S
WOLF CREEK PAS FAIR      25   9  50 CALM      30.23S
$$

COZ009-010-012-014-032>034-037-058>063-300600-
...CENTRAL COLORADO...

CITY           SKY/WX    TMP DP  RH WIND       PRES   REMARKS
ASPEN          FAIR      33  24  69 S8        30.10S WCI  26
BUENA VISTA    FAIR      34  20  56 NW3       30.07R
COPPER MTN     FAIR      27  18  69 MISG      30.16S
BERTHOUD PASS  HAZE      16   5  62 N22G30    30.11F VSB 3/4 WCI  -2
COTTONWOOD PAS FAIR      36  19  51 W20G26    30.10S
GUNNISON       FAIR      35  25  66 CALM      30.11S
KREMMLING      FAIR      36  28  75 CALM      30.09F
LEADVILLE      FAIR      27  16  63 N6        30.11S WCI  20
MONARCH PASS   FAIR      23  19  86 W23       30.26F WCI   7
SALIDA         FAIR      38  19  44 CALM      30.12R
SUNLIGHT       FAIR      27  19  74 W7        30.22S WCI  19
WILKERSON PASS FAIR      27  12  54 NW12G26   30.13F WCI  16
$$

COZ069>075-300600-
...SAN LUIS VALLEY/SANGRE DE CRISTO MOUNTAINS...

CITY           SKY/WX    TMP DP  RH WIND       PRES   REMARKS
ALAMOSA        FAIR      36  22  56 NW8       30.04F
LA VETA PASS   NOT AVBL
SAGUACHE       FAIR      37  23  56 NW8       30.09R
$$

COZ035-036-038>040-300600-
...NORTHERN COLORADO FRONT RANGE...

CITY           SKY/WX    TMP DP  RH WIND       PRES   REMARKS
DENVER INTL AP FAIR      34  30  85 S10       29.97S WCI  26
DMNS CITY PARK   N/A     44  33  64 S3        29.97S
AURORA         PTCLDY    38  34  86 S8        29.98S
FRONT RANGE AP NOT AVBL
ERIE MUNI ARPT FAIR      41  34  75 CALM        N/A
BOULDER MUN AP FAIR      43  34  70 CALM      29.96F
CENTENNIAL     FAIR      39  33  79 S6        29.97F
BROOMFIELD     NOT AVBL
FORT COLLINS   FAIR      42  34  73 SE9       29.97F
LONGMONT       FAIR      40  32  71 W3        29.98F
$$

COZ041-046-047-076>085-087-088-300600-
...PIKES PEAK/PALMER DIVIDE AND SOUTHERN FOOTHILLS...

CITY           SKY/WX    TMP DP  RH WIND       PRES   REMARKS
COLO. SPRINGS  FAIR      38  31  76 S8        30.00F
A. F. ACADEMY  NOT AVBL
SCHRIEVER AFB  FAIR      37  30  75 W3        30.00F
ELLICOTT       FAIR     N/A N/A N/A W6        29.98F
FALCON         FAIR      32  29  90 NW7       30.01F WCI  26
FORT CARSON    FAIR      41  32  70 S10       29.99F
LIMON          FAIR      28  28 100 NW5       29.97F WCI  23
MONUMENT HILL  FAIR      32  28  86 SW7       30.01F WCI  26
TRINIDAD       FAIR      37  32  82 W16       30.00F
$$

COZ042>045-048>051-090-091-300600-
...NORTHEAST COLORADO...

CITY           SKY/WX    TMP DP  RH WIND       PRES   REMARKS
GREELEY ARPT   FAIR      40  35  83 E5        29.99
AKRON          FAIR      35  33  92 S5        29.94F WCI  31
BURLINGTON     FAIR      35  33  92 NW8       29.91F WCI  29
WRAY           NOT AVBL
STERLING       FAIR      34  34 100 W5        29.94S WCI  30
HOLYOKE        FAIR      37  36  93 NW6       29.94F
FORT MORGAN    FAIR      35  32  89 W3        29.98S
$$

COZ086-089-092>099-300600-
...SOUTHEAST COLORADO...

CITY           SKY/WX    TMP DP  RH WIND       PRES   REMARKS
PUEBLO         FAIR      43  36  76 CALM      29.97F
LA JUNTA       FAIR      39  34  82 W9        29.96F
LAMAR          FAIR      38  35  89 W8        29.93F
SPRINGFIELD      N/A     36  34  92 NW10      29.94F
$$



USA.gov is the U.S. government's official web portal to all federal, state and local government web resources and services.